Home   Weather   Caversham   Past weeks

Flag for United Kingdom Past Weather in Caversham, England, United Kingdom — Yesterday and Last 2 Weeks

Now
61 °F

Scattered clouds.


Feels Like: 61 °F
Forecast: 53 / 70 °F
Wind: 6 mph from North

Location: Benson

Current Time: Jul 24, 2017 at 9:59:44 pm

Latest Report: Jul 24, 2017 at 9:00 pm


Visibility: 19 mi

Pressure: 30.03 "Hg

Humidity: 82%

Dew Point: 56 °F

Location of CavershamLocation

Past Weather in Caversham — Graph

°F

Caversham Temperature Yesterday

Maximum temperature yesterday: 66 °F (at 4:00 pm)
Minimum temperature yesterday: 49 °F (at 5:00 am)
Average temperature yesterday: 60 °F

High & Low Weather Summary for the Past Weeks

 TemperatureHumidityPressure
High80 °F (Jul 18, 3:00 pm)100% (Jul 16, 11:00 pm)30.28 "Hg (Jul 16, 11:00 pm)
Low49 °F (Jul 17, 6:00 am)39% (Jul 12, 5:00 pm)29.64 "Hg (Jul 20, 7:00 am)
Average63 °F76%29.95 "Hg
* Reported Jul 9 8:00 pm — Jul 24 8:00 pm, Caversham. Weather by CustomWeather, © 2017

Note: Actual official high and low records may vary slightly from our data, if they occured in-between our weather recording intervals... More about our weather records

Advertising

Caversham Weather History for the Previous 24 Hours

Scroll right to see more
 ConditionsComfort  
Time TempWeatherWind HumidityBarometerVisibility
8:00 pm
Mon, Jul 24
67 °FScattered clouds.8 mph66%30.02 "Hg19 mi
7:00 pm67 °FPartly sunny.8 mph65%30.00 "Hg19 mi
6:00 pm67 °FOvercast.12 mph62%30.00 "Hg19 mi
5:00 pm67 °FOvercast.10 mph66%30.00 "Hg19 mi
4:00 pm67 °FOvercast.10 mph67%30.00 "Hg19 mi
3:00 pm66 °FOvercast.10 mph68%30.00 "Hg19 mi
2:00 pm64 °FOvercast.9 mph71%29.99 "Hg19 mi
1:00 pm62 °FOvercast.10 mph79%29.98 "Hg19 mi
12:00 pm61 °FOvercast.13 mph80%29.98 "Hg18 mi
11:00 am61 °FLight rain. Overcast.10 mph84%29.96 "Hg19 mi
10:00 am59 °FOvercast.8 mph91%29.95 "Hg17 mi
9:00 am59 °FOvercast.9 mph93%29.93 "Hg9 mi
8:00 am58 °FRain. Low clouds.10 mph96%29.91 "Hg4 mi
7:00 am58 °FRain. Overcast.10 mph95%29.89 "Hg4 mi
6:00 am58 °FCool.12 mph93%29.88 "Hg15 mi
5:00 am59 °FCool.10 mph94%29.86 "Hg14 mi
4:00 am57 °FCool.8 mph98%29.85 "Hg4 mi
3:00 am57 °FCool.8 mph96%29.86 "Hg4 mi
2:00 am58 °FCool.6 mph94%29.88 "Hg3 mi
1:00 am59 °FCool.5 mph86%29.88 "Hg22 mi
12:00 am58 °FCool.2 mph89%29.88 "Hg22 mi
11:00 pm
Sun, Jul 23
57 °FCool.3 mph91%29.89 "Hg19 mi
10:00 pm56 °FCool.5 mph91%29.89 "Hg19 mi
9:00 pm61 °FCool.5 mph81%29.88 "Hg19 mi
Weather by CustomWeather, © 2017

See weather overviewHow to use our weather pages